This is the latest recevied weather packets stored in our database for station/object SP2WPY-13. If no packets are shown the sender has not sent any weather packets the latest 10 day(s).
| Time | Temp. | Humidity | Pressure | Rain* | Wind** | Luminosity | Snow |
|---|---|---|---|---|---|---|---|
| 1777704685 | 19.44° C | 32% | 1025.3 hPa | - | - | - | - |
| 1777704366 | 19.44° C | 32% | 1025.2 hPa | - | - | - | - |
| 1777704091 | 19.44° C | 32% | 1025.3 hPa | - | - | - | - |
| 1777703771 | 19.44° C | 34% | 1025.2 hPa | - | - | - | - |
| 1777703498 | 18.89° C | 34% | 1025.3 hPa | - | - | - | - |
| 1777703178 | 18.89° C | 34% | 1025.3 hPa | - | - | - | - |
| 1777702904 | 18.89° C | 34% | 1025.5 hPa | - | - | - | - |
| 1777702585 | 18.33° C | 35% | 1025.5 hPa | - | - | - | - |
| 1777702264 | 18.33° C | 36% | 1025.5 hPa | - | - | - | - |
| 1777701991 | 17.78° C | 36% | 1025.5 hPa | - | - | - | - |
| 1777701672 | 18.33° C | 38% | 1025.5 hPa | - | - | - | - |
| 1777701400 | 17.78° C | 37% | 1025.3 hPa | - | - | - | - |
| 1777701078 | 17.22° C | 38% | 1025.3 hPa | - | - | - | - |
| 1777700804 | 17.22° C | 40% | 1025.3 hPa | - | - | - | - |
| 1777700484 | 16.11° C | 40% | 1025.3 hPa | - | - | - | - |
| 1777700164 | 16.11° C | 40% | 1025.3 hPa | - | - | - | - |
| 1777699890 | 16.11° C | 41% | 1025.3 hPa | - | - | - | - |
| 1777699570 | 15.56° C | 41% | 1025.2 hPa | - | - | - | - |
| 1777699296 | 15.56° C | 41% | 1025.2 hPa | - | - | - | - |
| 1777698977 | 15.56° C | 41% | 1025.2 hPa | - | - | - | - |
| 1777698703 | 15° C | 43% | 1025.2 hPa | - | - | - | - |
| 1777698383 | 15° C | 42% | 1025.1 hPa | - | - | - | - |
| 1777698063 | 14.44° C | 43% | 1025.2 hPa | - | - | - | - |
| 1777697789 | 14.44° C | 43% | 1025.2 hPa | - | - | - | - |
| 1777697470 | 13.89° C | 45% | 1025.2 hPa | - | - | - | - |
* Rain since midnight (hover to see other rain measurements)
** Current wind speed in m/s (hover to see current wind gust speed)